Starlink 32418

operational
NORAD ID: 62429 Int'l Des: 2024-249 Owner: SPXS Country: US Constellation: starlink
LEOCIRCULAR

关于 Starlink 32418

正在加载描述...

实时位置

正在加载3D地球...

即将过境

高度历史

Altitude vs Time

uPlot chart will show altitude changes over time

两行轨道根数

1 62429U 24249W 25258.25391515 .00070049 00000-0 25263-2 0 9997
2 62429 42.9993 224.7829 0001646 266.7964 93.2699 15.27640207 40985
Epoch: Sep 15, 2025 • Age: 12 hours

当前状态

高度 493.9 km
速度 7.62 km/s
星下点 -40.59°S, 159.64°W
发射日期 Dec 23, 2024
运行时间 0.7 years
类型 internet

技术详情

分类 Payload
质量 730.00 kg
干质量 700.00 kg
总质量 730.00 kg
长度 0.30 m
直径 4.10 m
跨度 29.00 m
形状 Box + pan
制造商 SPXS
平台类型 Starlink V2M
阶段状态 In Orbit
所有者/国家 SPXS/US

大型星座

Loading constellations...